User: anonymous   Login
Location: Unspecified
(0.0000°N, 0.0000°E)
Time: 02:52:20
(UTC+00:00)
Language:

CERISE - Orbit

View from above orbital plane
View from above orbital plane
View from above satellite
View from above satellite

Ground track
Ground track

The orbit data is extracted from the following two-line orbital elements,

1 23606U 95033B   24107.92191072  .00020039  00000-0  13823-2 0  9995
2 23606  98.2770 232.8207 0009842  61.3876 298.8338 15.05806567559643
Epoch (UTC): 16 April 2024 22:07:33
Eccentricity: 0.0009842
inclination: 98.2770°
perigee height: 542 km
apogee height: 556 km
right ascension of ascending node: 232.8207°
argument of perigee: 61.3876°
revolutions per day: 15.05806567
mean anomaly at epoch: 298.8338°
orbit number at epoch: 55964

The dashed part of the orbit path shows where the satellite is in the earth's shadow,  

DLR